Погода в Кембридже

Великобритания     52°12′19″N   0°07′18″E
темп.,
°C
ветер,
м/с
пор.,
м/с
влажн.,
%
обл.,
%
осадки,
мм/ч
давл.,
гПа
погр.,
м
21 апреля, ср
ср2101:00+6вюв1190100 0.0 101910
04:00+6ссв3394100 0.0 101950
07:00+6ссв389230 0.0 1020251
10:00+10св7974100 0.0 10221060
13:00+11св7863100 0.1 10231373
16:00+11ссв665853 0.0 10231328
19:00+8св58666 0.0 1024571
22:00+3св38855 0.0 1026164
22 апреля, чт
чт2201:00+1всв33885 0.0 102738
04:000св22905 0.0 102718
07:00+2св248554 0.0 1028107
10:00+8св345935 0.0 1029766
13:00+12всв34475 0.0 10291244
16:00+13всв44465 0.0 10281452
19:00+10всв36685 0.0 1029162
22:00+4юв33865 0.0 103035
23 апреля, пт
пт2301:00+2юв22895 0.0 103010
04:00+1ююв11874 0.0 103110
07:00+2в11814 0.0 103128
10:00+9в34590 0.0 1031536
13:00+13в44440 0.0 10311106
16:00+14в45460 0.0 10301292
19:00+11юв47680 0.0 1029225
22:00+4вюв357880 0.0 103178
24 апреля, сб
сб2401:00+3вюв237925 0.0 103132
04:00+2в3387100 0.0 103035
07:00+4в2683100 0.0 1030154
10:00+10в4665100 0.0 1030667
13:00+13в5658100 0.0 10301351
16:00+14в5657100 0.0 10291396
19:00+11в5871100 0.0 1029371
22:00+5всв3884100 0.0 1030166
25 апреля, вс
вс2501:00+3всв389724 0.0 1030187
04:00+2всв37965 0.0 1029157
07:00+3св39913 0.0 1029281
10:00+9всв67593 0.0 1028882
13:00+12всв67482 0.0 10271242
16:00+12всв67480 0.0 10251267
19:00+9всв59615 0.0 1025534
22:00+2св49841 0.0 1025188